« Back
NWS Peachtree City, Ga » Text Product » GA Regional Weather Roundup


Printer-friendly Version
Current Version              Previous Versions:   1  2  3  4  5  6  7  8  9  

Regional Weather Roundup

348
ASUS42 KFFC 301603
RWRGA
WEATHER ROUNDUP FOR GEORGIA
NATIONAL WEATHER SERVICE PEACHTREE CITY GA
1200 PM EDT THU JUN 30 2016

NOTE: "FAIR" INDICATES FEW OR NO CLOUDS BELOW 12,000 FEET WITH NO
SIGNIFICANT WEATHER AND/OR OBSTRUCTIONS TO VISIBILITY.

* = USE WITH CAUTION. THE STATIONS MARKED WITH AN ASTERISK MAY NOT
REPORT WEATHER SUCH AS PRECIPITATION, FOG, OR THUNDER AND ARE NOT
QUALITY CONTROLLED BY NWS.

THE REMARK "TC" DENOTES TEMPERATURE READING IN DEGREES CELSIUS.

GAZ001>058-301700-
NORTH GEORGIA

CITY           SKY/WX    TMP DP  RH WIND       PRES   REMARKS
ATLANTA        MOSUNNY   88  63  43 VRB3      30.00S
ATHENS         PTSUNNY   84  74  71 VRB3      30.02R HX  91
CHAMBLEE       PTSUNNY   87  67  51 N5        30.00S HX  90
PEACHTREE CITY SUNNY     86  67  52 VRB5      30.01R
ROME           SUNNY     85  59  41 CALM      29.99F
WEST ATLANTA   SUNNY     87  69  54 N5        30.00R HX  91
GAINESVILLE    SUNNY     83  69  62 VRB7      30.05R
CARTERSVILLE   SUNNY     83  67  58 NE6       30.01F


CITY           SKY/WX    TMP DP  RH WIND       PRES   REMARKS
DALTON*        SUNNY     79  63  57 CALM      30.01F
MARIETTA       MOSUNNY   85  69  57 W3        30.01S
KENNESAW*      SUNNY     84  66  54 W6        29.97S
CANTON*        SUNNY     82  59  44 CALM      30.03F
$$

GAZ059>098-102>109-301700-
CENTRAL GEORGIA

CITY           SKY/WX    TMP DP  RH WIND       PRES   REMARKS
AUGUSTA-BUSH   SUNNY     86  75  69 E6        29.98F HX  95
AUGUSTA-DANIEL SUNNY     88  71  57 VRB6      30.00S HX  94
COLUMBUS       SUNNY     86  69  56 VRB3      29.99R HX  90
MACON          SUNNY     87  71  58 SW9       29.99S HX  93
ROBINS AFB     MOSUNNY   88  73  62 VRB1      29.99R HX  96


CITY           SKY/WX    TMP DP  RH WIND       PRES   REMARKS
LAGRANGE*      SUNNY     89  70  51 S3        30.00S HX  94
SYLVANIA*      CLOUDY    86  75  69 SW3       30.02R HX  95
MILLEDGEVILLE* PTSUNNY   88  77  70 CALM      30.00R HX 100
$$

GAZ099>101-110>166-301700-
SOUTH GEORGIA

CITY           SKY/WX    TMP DP  RH WIND       PRES   REMARKS
SAVANNAH       PTSUNNY   86  72  62 CALM      30.02R HX  92
VALDOSTA       PTSUNNY   83  75  77 CALM      30.02S HX  90
ALMA           MOSUNNY   86  74  67 SW5       30.01R HX  94
ST SIMONS      SUNNY     88  74  63 VRB5      30.01S HX  96
FT STEWART     MOSUNNY   87  74  64 SW3       29.99R HX  95
ALBANY         PTSUNNY   86  73  65 SW7       30.02S HX  93
HUNTER AFB     MOSUNNY   87  77  70 VRB5      29.99R HX  99
MOODY AFB      PTSUNNY   86  73  65 SW9       30.01S HX  92
BRUNSWICK      SUNNY     90  77  66 W7        30.02S HX 102


CITY           SKY/WX    TMP DP  RH WIND       PRES   REMARKS
BAINBRIDGE*    CLOUDY    81  73  78 CALM      30.02R
MOULTRIE*      PTSUNNY   81  73  78 CALM      30.03S
VIDALIA*       CLOUDY    88  72  58 CALM      30.01S HX  94
WAYCROSS*        N/A     91  78  64 SW6       30.01S HX 106
DOUGLAS*       SUNNY     86  72  62 SW6       30.02F HX  92
$$




USA.gov is the U.S. government's official web portal to all federal, state and local government web resources and services.